User: anonymous   Login
Location: Unspecified
(0.0000°N, 0.0000°E)
Time: 09:30:26
(UTC+00:00)
Language:

PLEIADES 1B - Orbit

View from above orbital plane
View from above orbital plane
View from above satellite
View from above satellite

Ground track
Ground track

The orbit data is extracted from the following two-line orbital elements,

1 39019U 12068A   17230.80513329 -.00000018  00000-0  59439-5 0  9998
2 39019  98.1980 305.1825 0001401  79.8428 280.2927 14.58548092250842
Epoch (UTC): 18 August 2017 19:19:23
Eccentricity: 0.0001401
inclination: 98.1980°
perigee height: 697 km
apogee height: 699 km
right ascension of ascending node: 305.1825°
argument of perigee: 79.8428°
revolutions per day: 14.58548092
mean anomaly at epoch: 280.2927°
orbit number at epoch: 25084

The dashed part of the orbit path shows where the satellite is in the earth's shadow,  

DLR